Flag for Sudan Weather past 2 weeks in Port Sudan, Sudan

Now
79 °F

Clear.


Feels Like: 82 °F
Forecast: 70 / 93 °F
Wind: No wind

Location: Jeddah King Abdul Aziz International Airport

Current Time: Apr 27, 2015 at 4:16:48 AM

Latest Report: Apr 27, 2015 at 3:00 AM


Visibility: 10 mi

Pressure: 29.74 "Hg

Humidity: 79%

Dew point: 72 °F

Location of Port SudanLocation

Historic Weather in Port Sudan — Graph

°F

Port Sudan temperature yesterday

Maximum temperature yesterday: 88 °F (at 2:00 PM)
Minimum temperature yesterday: 77 °F (at 6:00 AM)
Average temperature yesterday: 83 °F

Past Weeks' High & Low Weather Summary

 TemperatureHumidityPressure
High95 °F (Apr 21, 12:00 PM)79% (Apr 27, 3:00 AM)30.07 "Hg (Apr 27, 3:00 AM)
Low68 °F (Apr 13, 6:00 AM)20% (Apr 13, 12:00 PM)29.71 "Hg (Apr 25, 2:00 PM)
Average81 °F50%29.86 "Hg
* Reported Apr 12 3:00 AM — Apr 27 3:00 AM, Port Sudan, Weather by CustomWeather, © 2015

Note: Actual official high and low records may vary slightly from our data, if they occured in-between our weather recording intervals... More about our weather records

Advertising

Port Sudan weather history for previous 24 hours

 ConditionsComfort  
Time TempWeatherWind HumidityBarometerVisibility
3:00 AM
Mon, Apr 27
79 °FClear.No wind79%29.74 "Hg10 mi
2:00 AM79 °FClear.No wind70%29.77 "Hg10 mi
1:00 AM81 °FClear.5 mph70%29.77 "Hg10 mi
12:00 AM81 °FClear.5 mph70%29.77 "Hg10 mi
11:00 PM
Sun, Apr 26
81 °FClear.5 mph70%29.77 "Hg10 mi
10:00 PM82 °FClear.2 mph62%29.77 "Hg10 mi
9:00 PM84 °FClear.No wind55%29.77 "Hg10 mi
8:00 PM84 °FClear.No wind51%29.74 "Hg10 mi
7:00 PM84 °FClear.2 mph55%29.74 "Hg10 mi
6:00 PM84 °FSunny.6 mph55%29.74 "Hg10 mi
5:00 PM86 °FSunny.7 mph59%29.74 "Hg5 mi
4:00 PM88 °FSunny.9 mph49%29.71 "Hg10 mi
3:00 PM88 °FSunny.7 mph52%29.74 "Hg10 mi
2:00 PM88 °FSunny.12 mph49%29.74 "Hg10 mi
1:00 PM86 °FSunny.12 mph55%29.77 "Hg10 mi
12:00 PM86 °FSunny.12 mph52%29.77 "Hg5 mi
11:00 AM86 °FSunny.14 mph49%29.80 "Hg5 mi
10:00 AM86 °FSunny.12 mph46%29.80 "Hg5 mi
9:00 AM82 °FSunny.5 mph55%29.80 "Hg10 mi
8:00 AM81 °FSunny.No wind58%29.77 "Hg10 mi
7:00 AM79 °FSunny.No wind61%29.77 "Hg10 mi
6:00 AM77 °FSunny.5 mph65%29.74 "Hg10 mi
5:00 AM79 °FClear.5 mph61%29.74 "Hg10 mi
4:00 AM79 °FClear.5 mph61%29.71 "Hg10 mi
Weather by CustomWeather, © 2015

See weather overviewHow to use our weather pages